Regional Weather Roundup
Issued by NWS

Home | Current Version | Previous Version | Graphics & Text | Print | Product List | Glossary On
Versions: 1 2 3 4 5 6 7 8 9 10 11 12 13 14 15 16 17 18 19 20 21 22 23 24 25 26 27 28 29 30 31 32 33 34 35 36 37 38 39 40 41 42 43 44 45 46 47 48 49 50
000
ASUS44 KMEG 241700
RWRTN
TENNESSEE HOURLY STATE WEATHER ROUNDUP
NATIONAL WEATHER SERVICE MEMPHIS TN
1100 AM CST TUE JAN 24 2017

TNZ002-004-019-021-049-052-054-088>092-241800-
WEST TENNESSEE

CITY           SKY/WX    TMP DP  RH WIND       PRES   REMARKS
MEMPHIS INTL   MOSUNNY   53  40  61 VRB5      29.93S
NWS MEMPHIS      N/A     52 N/A N/A MISG        N/A
JACKSON        SUNNY     48  37  65 CALM      29.95S
DYERSBURG      SUNNY     46  36  66 SE8       29.94S
UNION CITY     SUNNY     46  36  66 CALM      29.93R
PARIS          SUNNY     45  34  65 CALM      29.92F
$$

TNZ008-025-027-028-033-062-065-066-241800-
NORTH MIDDLE TENNESSEE

CITY           SKY/WX    TMP DP  RH WIND       PRES   REMARKS
NASHVILLE      PTSUNNY   45  33  63 NE5       29.96F
CLARKSVILLE    PTSUNNY   44  34  67 E6        29.94F
SMYRNA         CLOUDY    44  35  70 N5        29.97F
CROSSVILLE     CLOUDY    37  33  85 N5        29.91F WCI  33
$$

TNZ061-075-076-078-094-096-097-241800-
SOUTH MIDDLE TENNESSEE

CITY           SKY/WX    TMP DP  RH WIND       PRES   REMARKS
TULLAHOMA      MOSUNNY   43  34  70 CALM      29.94S
WINCHESTER     PTSUNNY   43  36  75 E3        29.94F
MCMINNVILLE    CLOUDY    41  36  81 NE3         N/A
COLUMBIA       SUNNY     48  39  71 VRB5      29.92F
SHELBYVILLE    PTSUNNY   45  37  76 E5        29.96S
$$

TNZ017-018-042-046-047-241800-
NORTHEAST TENNESSEE

CITY           SKY/WX    TMP DP  RH WIND       PRES   REMARKS
TRI CITIES     CLOUDY    44  40  85 W13       29.86S
$$

TNZ012-013-036-069-073-074-241800-
CENTRAL EAST TENNESSEE

CITY           SKY/WX    TMP DP  RH WIND       PRES   REMARKS
KNOXVILLE      PTSUNNY   46  38  73 S3        29.90F
OAK RIDGE      MOSUNNY   48  36  63 W3        29.92F
GATLINBURG     PTSUNNY   46  39  76 NW6       29.90F
$$

TNZ083-085-099-241800-
SOUTHEAST TENNESSEE

CITY           SKY/WX    TMP DP  RH WIND       PRES   REMARKS
CHATTANOOGA    PTSUNNY   47  35  63 N10       29.94F
$$

SKY/WX REPORTED AS FAIR MEANS FEW OR NO CLOUDS BELOW
12 THOUSAND FEET.




USA.gov is the U.S. government's official web portal to all federal, state and local government web resources and services.